contact:dominique.lefevre@mio.osupytheas.fr, maurice.libes@osupytheas.fr, didier.mallarino@osupytheas.fr
Project:EMSO http://www.emso-fr.org/EMSO-France
Depth: 2436.0 m
Title:EMSO Ligure Ouest : Data MII capteur MICROCAT
DateTime_Computer,Latitude,Longitude,Temperature,Conductivity,Pressure,DateTime_Instrument
DateTime_Computer,Latitude,Longitude,degC,S m-1,dbar,DateTime_Instrument
2021-06-06T00:01:25Z,42.805,6.029,13.2991,4.60052,2470.413,2021-6-06T02:02:37Z
2021-06-06T00:04:28Z,42.805,6.029,13.2991,4.60078,2470.437,2021-6-06T02:05:40Z
2021-06-06T00:07:31Z,42.805,6.029,13.2993,4.60042,2470.427,2021-6-06T02:08:44Z
2021-06-06T00:10:34Z,42.805,6.029,13.2989,4.60028,2470.45,2021-6-06T02:11:47Z
2021-06-06T00:13:37Z,42.805,6.029,13.2992,4.60031,2470.437,2021-6-06T02:14:50Z
2021-06-06T00:16:40Z,42.805,6.029,13.2989,4.60026,2470.437,2021-6-06T02:17:53Z
2021-06-06T00:19:43Z,42.805,6.029,13.2990,4.60027,2470.413,2021-6-06T02:20:56Z
2021-06-06T00:22:46Z,42.805,6.029,13.2994,4.60027,2470.413,2021-6-06T02:23:59Z
2021-06-06T00:25:50Z,42.805,6.029,13.2994,4.60027,2470.437,2021-6-06T02:27:02Z
2021-06-06T00:28:53Z,42.805,6.029,13.2993,4.60026,2470.413,2021-6-06T02:30:05Z
2021-06-06T00:31:56Z,42.805,6.029,13.2991,4.60026,2470.413,2021-6-06T02:33:08Z
2021-06-06T00:34:59Z,42.805,6.029,13.2989,4.60028,2470.413,2021-6-06T02:36:12Z
2021-06-06T00:38:02Z,42.805,6.029,13.2993,4.60025,2470.45,2021-6-06T02:39:15Z
2021-06-06T00:41:05Z,42.805,6.029,13.2990,4.60023,2470.45,2021-6-06T02:42:18Z
2021-06-06T00:44:08Z,42.805,6.029,13.2988,4.60029,2470.39,2021-6-06T02:45:21Z
2021-06-06T00:47:11Z,42.805,6.029,13.2989,4.60021,2470.427,2021-6-06T02:48:24Z
2021-06-06T00:50:14Z,42.805,6.029,13.2992,4.60016,2470.45,2021-6-06T02:51:27Z
2021-06-06T00:53:18Z,42.805,6.029,13.2989,4.60019,2470.45,2021-6-06T02:54:30Z
2021-06-06T00:56:21Z,42.805,6.029,13.2991,4.60022,2470.427,2021-6-06T02:57:33Z
2021-06-06T00:59:24Z,42.805,6.029,13.2992,4.60023,2470.413,2021-6-06T03:00:37Z
2021-06-06T01:02:27Z,42.805,6.029,13.2993,4.60031,2470.46,2021-6-06T03:03:40Z
2021-06-06T01:05:30Z,42.805,6.029,13.2991,4.60035,2470.437,2021-6-06T03:06:43Z
2021-06-06T01:08:33Z,42.805,6.029,13.2991,4.60039,2470.413,2021-6-06T03:09:46Z
2021-06-06T01:11:36Z,42.805,6.029,13.2993,4.60027,2470.437,2021-6-06T03:12:49Z
2021-06-06T01:14:39Z,42.805,6.029,13.2995,4.60024,2470.437,2021-6-06T03:15:52Z
2021-06-06T01:17:42Z,42.805,6.029,13.2996,4.60047,2470.45,2021-6-06T03:18:55Z
2021-06-06T01:20:46Z,42.805,6.029,13.2991,4.60036,2470.46,2021-6-06T03:21:58Z
2021-06-06T01:23:49Z,42.805,6.029,13.2989,4.60026,2470.474,2021-6-06T03:25:01Z
2021-06-06T01:26:52Z,42.805,6.029,13.2990,4.60029,2470.437,2021-6-06T03:28:05Z
2021-06-06T01:29:55Z,42.805,6.029,13.2992,4.60031,2470.483,2021-6-06T03:31:08Z
2021-06-06T01:32:58Z,42.805,6.029,13.2993,4.60026,2470.46,2021-6-06T03:34:11Z
2021-06-06T01:36:01Z,42.805,6.029,13.2995,4.60017,2470.474,2021-6-06T03:37:14Z
2021-06-06T01:39:04Z,42.805,6.029,13.2992,4.60019,2470.46,2021-6-06T03:40:17Z
2021-06-06T01:42:07Z,42.805,6.029,13.2990,4.60016,2470.474,2021-6-06T03:43:20Z
2021-06-06T01:45:11Z,42.805,6.029,13.2991,4.60021,2470.46,2021-6-06T03:46:23Z
2021-06-06T01:48:14Z,42.805,6.029,13.2990,4.60017,2470.45,2021-6-06T03:49:26Z
2021-06-06T01:51:17Z,42.805,6.029,13.2992,4.60021,2470.46,2021-6-06T03:52:30Z
2021-06-06T01:54:20Z,42.805,6.029,13.2992,4.60024,2470.474,2021-6-06T03:55:33Z
2021-06-06T01:57:23Z,42.805,6.029,13.2996,4.60019,2470.474,2021-6-06T03:58:36Z
2021-06-06T02:00:26Z,42.805,6.029,13.2993,4.60017,2470.497,2021-6-06T04:01:39Z
2021-06-06T02:03:29Z,42.805,6.029,13.2994,4.60013,2470.46,2021-6-06T04:04:42Z
2021-06-06T02:06:32Z,42.805,6.029,13.2989,4.60014,2470.474,2021-6-06T04:07:45Z
2021-06-06T02:09:35Z,42.805,6.029,13.2995,4.60011,2470.46,2021-6-06T04:10:48Z
2021-06-06T02:12:39Z,42.805,6.029,13.2991,4.60021,2470.474,2021-6-06T04:13:51Z
2021-06-06T02:15:42Z,42.805,6.029,13.2989,4.60031,2470.497,2021-6-06T04:16:55Z
2021-06-06T02:18:45Z,42.805,6.029,13.2990,4.60021,2470.497,2021-6-06T04:19:58Z
2021-06-06T02:21:48Z,42.805,6.029,13.2992,4.60021,2470.483,2021-6-06T04:23:01Z
2021-06-06T02:24:51Z,42.805,6.029,13.2993,4.60014,2470.497,2021-6-06T04:26:04Z
2021-06-06T02:27:54Z,42.805,6.029,13.2991,4.60019,2470.46,2021-6-06T04:29:07Z
2021-06-06T02:30:57Z,42.805,6.029,13.2993,4.60014,2470.483,2021-6-06T04:32:10Z
2021-06-06T02:34:00Z,42.805,6.029,13.2991,4.60016,2470.46,2021-6-06T04:35:13Z
2021-06-06T02:37:04Z,42.805,6.029,13.2990,4.60014,2470.483,2021-6-06T04:38:16Z
2021-06-06T02:40:07Z,42.805,6.029,13.2984,4.60017,2470.483,2021-6-06T04:41:19Z
2021-06-06T02:43:10Z,42.805,6.029,13.2991,4.60005,2470.53,2021-6-06T04:44:23Z
2021-06-06T02:46:13Z,42.805,6.029,13.2991,4.60014,2470.52,2021-6-06T04:47:26Z
2021-06-06T02:49:16Z,42.805,6.029,13.2990,4.60004,2470.483,2021-6-06T04:50:29Z
2021-06-06T02:52:19Z,42.805,6.029,13.2991,4.60010,2470.53,2021-6-06T04:53:32Z
2021-06-06T02:55:22Z,42.805,6.029,13.2986,4.60008,2470.507,2021-6-06T04:56:35Z
2021-06-06T02:58:25Z,42.805,6.029,13.2990,4.60007,2470.52,2021-6-06T04:59:38Z
2021-06-06T03:01:29Z,42.805,6.029,13.2989,4.60006,2470.52,2021-6-06T05:02:41Z
2021-06-06T03:04:32Z,42.805,6.029,13.2991,4.60011,2470.516,2021-6-06T05:05:44Z
2021-06-06T03:07:35Z,42.805,6.029,13.2993,4.60019,2470.507,2021-6-06T05:08:48Z
2021-06-06T03:10:38Z,42.805,6.029,13.2990,4.60009,2470.507,2021-6-06T05:11:51Z
2021-06-06T03:13:41Z,42.805,6.029,13.2990,4.60010,2470.544,2021-6-06T05:14:54Z
2021-06-06T03:16:44Z,42.805,6.029,13.2991,4.60008,2470.544,2021-6-06T05:17:57Z
2021-06-06T03:19:47Z,42.805,6.029,13.2990,4.60009,2470.544,2021-6-06T05:21:00Z
2021-06-06T03:22:50Z,42.805,6.029,13.2990,4.60011,2470.53,2021-6-06T05:24:03Z
2021-06-06T03:25:53Z,42.805,6.029,13.2990,4.60011,2470.544,2021-6-06T05:27:06Z
2021-06-06T03:28:57Z,42.805,6.029,13.2991,4.60009,2470.53,2021-6-06T05:30:09Z
2021-06-06T03:32:00Z,42.805,6.029,13.2990,4.60010,2470.507,2021-6-06T05:33:13Z
2021-06-06T03:35:03Z,42.805,6.029,13.2990,4.60017,2470.53,2021-6-06T05:36:16Z
2021-06-06T03:38:06Z,42.805,6.029,13.2991,4.60019,2470.553,2021-6-06T05:39:19Z
2021-06-06T03:41:09Z,42.805,6.029,13.2991,4.60016,2470.53,2021-6-06T05:42:22Z
2021-06-06T03:44:12Z,42.805,6.029,13.2990,4.60016,2470.53,2021-6-06T05:45:25Z
2021-06-06T03:47:15Z,42.805,6.029,13.2994,4.60017,2470.567,2021-6-06T05:48:28Z
2021-06-06T03:50:18Z,42.805,6.029,13.2990,4.60009,2470.553,2021-6-06T05:51:31Z
2021-06-06T03:53:22Z,42.805,6.029,13.2993,4.60017,2470.53,2021-6-06T05:54:34Z
2021-06-06T03:56:25Z,42.805,6.029,13.2993,4.60011,2470.53,2021-6-06T05:57:37Z
2021-06-06T03:59:28Z,42.805,6.029,13.2990,4.60010,2470.553,2021-6-06T06:00:41Z
2021-06-06T04:02:31Z,42.805,6.029,13.2991,4.60011,2470.553,2021-6-06T06:03:44Z
2021-06-06T04:05:34Z,42.805,6.029,13.2993,4.60014,2470.553,2021-6-06T06:06:47Z
2021-06-06T04:08:37Z,42.805,6.029,13.2991,4.60021,2470.553,2021-6-06T06:09:50Z
2021-06-06T04:11:40Z,42.805,6.029,13.2993,4.60016,2470.567,2021-6-06T06:12:53Z
2021-06-06T04:14:43Z,42.805,6.029,13.2993,4.60014,2470.553,2021-6-06T06:15:56Z
2021-06-06T04:17:46Z,42.805,6.029,13.2990,4.60015,2470.567,2021-6-06T06:18:59Z
2021-06-06T04:20:50Z,42.805,6.029,13.2995,4.60011,2470.553,2021-6-06T06:22:02Z
2021-06-06T04:23:53Z,42.805,6.029,13.2990,4.60015,2470.553,2021-6-06T06:25:06Z
2021-06-06T04:26:56Z,42.805,6.029,13.2988,4.60007,2470.52,2021-6-06T06:28:09Z
2021-06-06T04:29:59Z,42.805,6.029,13.2993,4.60021,2470.567,2021-6-06T06:31:12Z
2021-06-06T04:33:02Z,42.805,6.029,13.2993,4.60018,2470.544,2021-6-06T06:34:15Z
2021-06-06T04:36:05Z,42.805,6.029,13.2991,4.60021,2470.553,2021-6-06T06:37:18Z
2021-06-06T04:39:08Z,42.805,6.029,13.2995,4.60009,2470.567,2021-6-06T06:40:21Z
2021-06-06T04:42:11Z,42.805,6.029,13.2986,4.60010,2470.553,2021-6-06T06:43:24Z
2021-06-06T04:45:15Z,42.805,6.029,13.2992,4.60024,2470.507,2021-6-06T06:46:27Z
2021-06-06T04:48:18Z,42.805,6.029,13.2991,4.60011,2470.53,2021-6-06T06:49:30Z
2021-06-06T04:51:21Z,42.805,6.029,13.2991,4.60010,2470.553,2021-6-06T06:52:34Z
2021-06-06T04:54:24Z,42.805,6.029,13.2993,4.60021,2470.567,2021-6-06T06:55:37Z
2021-06-06T04:57:27Z,42.805,6.029,13.2990,4.60017,2470.544,2021-6-06T06:58:40Z
2021-06-06T05:00:30Z,42.805,6.029,13.2990,4.60013,2470.553,2021-6-06T07:01:43Z
2021-06-06T05:03:33Z,42.805,6.029,13.2995,4.60020,2470.553,2021-6-06T07:04:46Z
2021-06-06T05:06:36Z,42.805,6.029,13.2991,4.60016,2470.567,2021-6-06T07:07:49Z
2021-06-06T05:09:39Z,42.805,6.029,13.2987,4.60009,2470.53,2021-6-06T07:10:52Z
2021-06-06T05:12:43Z,42.805,6.029,13.2990,4.60015,2470.544,2021-6-06T07:13:55Z
2021-06-06T05:15:46Z,42.805,6.029,13.2990,4.60012,2470.53,2021-6-06T07:16:59Z
2021-06-06T05:18:49Z,42.805,6.029,13.2993,4.60013,2470.544,2021-6-06T07:20:02Z
2021-06-06T05:21:52Z,42.805,6.029,13.2991,4.60019,2470.544,2021-6-06T07:23:05Z
2021-06-06T05:24:55Z,42.805,6.029,13.2993,4.60019,2470.53,2021-6-06T07:26:08Z
2021-06-06T05:27:58Z,42.805,6.029,13.2990,4.60032,2470.544,2021-6-06T07:29:11Z
2021-06-06T05:31:01Z,42.805,6.029,13.2995,4.60026,2470.544,2021-6-06T07:32:14Z
2021-06-06T05:34:04Z,42.805,6.029,13.2990,4.60033,2470.53,2021-6-06T07:35:17Z
2021-06-06T05:37:08Z,42.805,6.029,13.2991,4.60036,2470.53,2021-6-06T07:38:20Z
2021-06-06T05:40:11Z,42.805,6.029,13.2992,4.60031,2470.53,2021-6-06T07:41:23Z
2021-06-06T05:43:14Z,42.805,6.029,13.2991,4.60034,2470.567,2021-6-06T07:44:27Z
2021-06-06T05:46:17Z,42.805,6.029,13.2994,4.60036,2470.567,2021-6-06T07:47:30Z
2021-06-06T05:49:20Z,42.805,6.029,13.2991,4.60048,2470.544,2021-6-06T07:50:33Z
2021-06-06T05:52:23Z,42.805,6.029,13.2991,4.60039,2470.53,2021-6-06T07:53:36Z
2021-06-06T05:55:26Z,42.805,6.029,13.2990,4.60033,2470.507,2021-6-06T07:56:39Z
2021-06-06T05:58:29Z,42.805,6.029,13.2992,4.60029,2470.544,2021-6-06T07:59:42Z
2021-06-06T06:01:33Z,42.805,6.029,13.2991,4.60027,2470.53,2021-6-06T08:02:45Z
2021-06-06T06:04:36Z,42.805,6.029,13.2993,4.60031,2470.52,2021-6-06T08:05:48Z
2021-06-06T06:07:39Z,42.805,6.029,13.2990,4.60053,2470.53,2021-6-06T08:08:52Z
2021-06-06T06:10:42Z,42.805,6.029,13.2991,4.60050,2470.544,2021-6-06T08:11:55Z
2021-06-06T06:13:45Z,42.805,6.029,13.2988,4.60031,2470.544,2021-6-06T08:14:58Z
2021-06-06T06:16:48Z,42.805,6.029,13.2991,4.60026,2470.483,2021-6-06T08:18:01Z
2021-06-06T06:19:51Z,42.805,6.029,13.2990,4.60039,2470.53,2021-6-06T08:21:04Z
2021-06-06T06:22:54Z,42.805,6.029,13.2993,4.60024,2470.53,2021-6-06T08:24:07Z
2021-06-06T06:25:57Z,42.805,6.029,13.2992,4.60019,2470.497,2021-6-06T08:27:10Z
2021-06-06T06:29:01Z,42.805,6.029,13.2993,4.60053,2470.52,2021-6-06T08:30:13Z
2021-06-06T06:32:04Z,42.805,6.029,13.2992,4.60050,2470.53,2021-6-06T08:33:16Z
2021-06-06T06:35:07Z,42.805,6.029,13.2994,4.60033,2470.483,2021-6-06T08:36:20Z
2021-06-06T06:38:10Z,42.805,6.029,13.2992,4.60044,2470.507,2021-6-06T08:39:23Z
2021-06-06T06:41:13Z,42.805,6.029,13.2992,4.60046,2470.483,2021-6-06T08:42:26Z
2021-06-06T06:44:16Z,42.805,6.029,13.2991,4.60053,2470.483,2021-6-06T08:45:29Z
2021-06-06T06:47:19Z,42.805,6.029,13.2991,4.60036,2470.497,2021-6-06T08:48:32Z
2021-06-06T06:50:22Z,42.805,6.029,13.2991,4.60033,2470.507,2021-6-06T08:51:35Z
2021-06-06T06:53:26Z,42.805,6.029,13.2993,4.60029,2470.507,2021-6-06T08:54:38Z
2021-06-06T06:56:29Z,42.805,6.029,13.2991,4.60032,2470.483,2021-6-06T08:57:41Z
2021-06-06T06:59:32Z,42.805,6.029,13.2990,4.60021,2470.507,2021-6-06T09:00:45Z
2021-06-06T07:02:35Z,42.805,6.029,13.2992,4.60018,2470.507,2021-6-06T09:03:48Z
2021-06-06T07:05:38Z,42.805,6.029,13.2989,4.60013,2470.46,2021-6-06T09:06:51Z
2021-06-06T07:08:41Z,42.805,6.029,13.2991,4.60019,2470.497,2021-6-06T09:09:54Z
2021-06-06T07:11:44Z,42.805,6.029,13.2990,4.60019,2470.46,2021-6-06T09:12:57Z
2021-06-06T07:14:47Z,42.805,6.029,13.2989,4.60021,2470.474,2021-6-06T09:16:00Z
2021-06-06T07:17:50Z,42.805,6.029,13.2990,4.60023,2470.46,2021-6-06T09:19:03Z
2021-06-06T07:20:54Z,42.805,6.029,13.2989,4.60027,2470.483,2021-6-06T09:22:06Z
2021-06-06T07:23:57Z,42.805,6.029,13.2989,4.60021,2470.52,2021-6-06T09:25:09Z
2021-06-06T07:27:00Z,42.805,6.029,13.2989,4.60023,2470.46,2021-6-06T09:28:13Z
2021-06-06T07:30:03Z,42.805,6.029,13.2991,4.60029,2470.46,2021-6-06T09:31:16Z
2021-06-06T07:33:06Z,42.805,6.029,13.2991,4.60029,2470.497,2021-6-06T09:34:19Z
2021-06-06T07:36:09Z,42.805,6.029,13.2989,4.60038,2470.483,2021-6-06T09:37:22Z
2021-06-06T07:39:12Z,42.805,6.029,13.2991,4.60038,2470.46,2021-6-06T09:40:25Z
2021-06-06T07:42:15Z,42.805,6.029,13.2994,4.60062,2470.46,2021-6-06T09:43:28Z
2021-06-06T07:45:18Z,42.805,6.029,13.2989,4.60047,2470.437,2021-6-06T09:46:31Z
2021-06-06T07:48:22Z,42.805,6.029,13.2993,4.60052,2470.45,2021-6-06T09:49:34Z
2021-06-06T07:51:25Z,42.805,6.029,13.2990,4.60068,2470.474,2021-6-06T09:52:38Z
2021-06-06T07:54:28Z,42.805,6.029,13.2994,4.60060,2470.46,2021-6-06T09:55:41Z
2021-06-06T07:57:31Z,42.805,6.029,13.2996,4.60050,2470.413,2021-6-06T09:58:44Z
2021-06-06T08:00:34Z,42.805,6.029,13.2995,4.60033,2470.413,2021-6-06T10:01:47Z
2021-06-06T08:03:37Z,42.805,6.029,13.2993,4.60033,2470.46,2021-6-06T10:04:50Z
2021-06-06T08:06:40Z,42.805,6.029,13.2991,4.60030,2470.427,2021-6-06T10:07:53Z
2021-06-06T08:09:43Z,42.805,6.029,13.2993,4.60036,2470.45,2021-6-06T10:10:56Z
2021-06-06T08:12:47Z,42.805,6.029,13.2993,4.60026,2470.413,2021-6-06T10:13:59Z
2021-06-06T08:15:50Z,42.805,6.029,13.2992,4.60024,2470.437,2021-6-06T10:17:02Z
2021-06-06T08:18:53Z,42.805,6.029,13.2993,4.60020,2470.413,2021-6-06T10:20:06Z
2021-06-06T08:21:56Z,42.805,6.029,13.2992,4.60017,2470.437,2021-6-06T10:23:09Z
2021-06-06T08:24:59Z,42.805,6.029,13.2991,4.60020,2470.427,2021-6-06T10:26:12Z
2021-06-06T08:28:02Z,42.805,6.029,13.2987,4.60023,2470.45,2021-6-06T10:29:15Z
2021-06-06T08:31:05Z,42.805,6.029,13.2991,4.60019,2470.39,2021-6-06T10:32:18Z
2021-06-06T08:34:08Z,42.805,6.029,13.2991,4.60019,2470.404,2021-6-06T10:35:21Z
2021-06-06T08:37:12Z,42.805,6.029,13.2990,4.60019,2470.427,2021-6-06T10:38:24Z
2021-06-06T08:40:15Z,42.805,6.029,13.2990,4.60021,2470.437,2021-6-06T10:41:27Z
2021-06-06T08:43:18Z,42.805,6.029,13.2991,4.60018,2470.427,2021-6-06T10:44:31Z
2021-06-06T08:46:21Z,42.805,6.029,13.2993,4.60025,2470.427,2021-6-06T10:47:34Z
2021-06-06T08:49:24Z,42.805,6.029,13.2991,4.60023,2470.427,2021-6-06T10:50:37Z
2021-06-06T08:52:27Z,42.805,6.029,13.2991,4.60016,2470.39,2021-6-06T10:53:40Z
2021-06-06T08:55:30Z,42.805,6.029,13.2991,4.60021,2470.413,2021-6-06T10:56:43Z
2021-06-06T08:58:33Z,42.805,6.029,13.2989,4.60024,2470.404,2021-6-06T10:59:46Z
2021-06-06T09:01:37Z,42.805,6.029,13.2993,4.60024,2470.366,2021-6-06T11:02:49Z
2021-06-06T09:04:40Z,42.805,6.029,13.2991,4.60033,2470.39,2021-6-06T11:05:52Z
2021-06-06T09:07:43Z,42.805,6.029,13.2991,4.60028,2470.404,2021-6-06T11:08:56Z
2021-06-06T09:10:46Z,42.805,6.029,13.2992,4.60016,2470.39,2021-6-06T11:11:59Z
2021-06-06T09:13:49Z,42.805,6.029,13.2991,4.60021,2470.366,2021-6-06T11:15:02Z
2021-06-06T09:16:52Z,42.805,6.029,13.2991,4.60031,2470.38,2021-6-06T11:18:05Z
2021-06-06T09:19:55Z,42.805,6.029,13.2991,4.60025,2470.38,2021-6-06T11:21:08Z
2021-06-06T09:22:58Z,42.805,6.029,13.2991,4.60017,2470.366,2021-6-06T11:24:11Z
2021-06-06T09:26:02Z,42.805,6.029,13.2990,4.60021,2470.366,2021-6-06T11:27:14Z
2021-06-06T09:29:05Z,42.805,6.029,13.2992,4.60018,2470.357,2021-6-06T11:30:17Z
2021-06-06T09:32:08Z,42.805,6.029,13.2987,4.60029,2470.38,2021-6-06T11:33:21Z
2021-06-06T09:35:11Z,42.805,6.029,13.2992,4.60029,2470.404,2021-6-06T11:36:24Z
2021-06-06T09:38:14Z,42.805,6.029,13.2991,4.60023,2470.357,2021-6-06T11:39:27Z
2021-06-06T09:41:17Z,42.805,6.029,13.2993,4.60021,2470.404,2021-6-06T11:42:30Z
2021-06-06T09:44:20Z,42.805,6.029,13.2991,4.60019,2470.366,2021-6-06T11:45:33Z
2021-06-06T09:47:23Z,42.805,6.029,13.2987,4.60021,2470.366,2021-6-06T11:48:36Z
2021-06-06T09:50:27Z,42.805,6.029,13.2989,4.60016,2470.38,2021-6-06T11:51:39Z
2021-06-06T09:53:30Z,42.805,6.029,13.2988,4.60014,2470.38,2021-6-06T11:54:42Z
2021-06-06T09:56:33Z,42.805,6.029,13.2986,4.60020,2470.343,2021-6-06T11:57:46Z
2021-06-06T09:59:36Z,42.805,6.029,13.2992,4.60020,2470.343,2021-6-06T12:00:49Z
2021-06-06T10:02:39Z,42.805,6.029,13.2991,4.60024,2470.32,2021-6-06T12:03:52Z
2021-06-06T10:05:42Z,42.805,6.029,13.2986,4.60015,2470.366,2021-6-06T12:06:55Z
2021-06-06T10:08:45Z,42.805,6.029,13.2990,4.60026,2470.357,2021-6-06T12:09:58Z
2021-06-06T10:11:48Z,42.805,6.029,13.2991,4.60026,2470.334,2021-6-06T12:13:01Z
2021-06-06T10:14:52Z,42.805,6.029,13.2991,4.60026,2470.366,2021-6-06T12:16:04Z
2021-06-06T10:17:55Z,42.805,6.029,13.2991,4.60024,2470.357,2021-6-06T12:19:07Z
2021-06-06T10:20:58Z,42.805,6.029,13.2986,4.60027,2470.297,2021-6-06T12:22:11Z
2021-06-06T10:24:01Z,42.805,6.029,13.2987,4.60021,2470.32,2021-6-06T12:25:14Z
2021-06-06T10:27:04Z,42.805,6.029,13.2994,4.60021,2470.357,2021-6-06T12:28:17Z
2021-06-06T10:30:07Z,42.805,6.029,13.2990,4.60022,2470.334,2021-6-06T12:31:20Z
2021-06-06T10:33:10Z,42.805,6.029,13.2995,4.60022,2470.343,2021-6-06T12:34:23Z
2021-06-06T10:36:13Z,42.805,6.029,13.2993,4.60019,2470.38,2021-6-06T12:37:26Z
2021-06-06T10:39:17Z,42.805,6.029,13.2991,4.60016,2470.32,2021-6-06T12:40:29Z
2021-06-06T10:42:20Z,42.805,6.029,13.2990,4.60024,2470.31,2021-6-06T12:43:32Z
2021-06-06T10:45:23Z,42.805,6.029,13.2990,4.60023,2470.32,2021-6-06T12:46:36Z
2021-06-06T10:48:26Z,42.805,6.029,13.2993,4.60016,2470.32,2021-6-06T12:49:39Z
2021-06-06T10:51:29Z,42.805,6.029,13.2993,4.60016,2470.32,2021-6-06T12:52:42Z
2021-06-06T10:54:32Z,42.805,6.029,13.2994,4.60020,2470.334,2021-6-06T12:55:45Z
2021-06-06T10:57:35Z,42.805,6.029,13.2992,4.60022,2470.357,2021-6-06T12:58:48Z
2021-06-06T11:00:38Z,42.805,6.029,13.2991,4.60016,2470.32,2021-6-06T13:01:51Z
2021-06-06T11:03:41Z,42.805,6.029,13.2990,4.60014,2470.297,2021-6-06T13:04:54Z
2021-06-06T11:06:45Z,42.805,6.029,13.2991,4.60019,2470.297,2021-6-06T13:07:57Z
2021-06-06T11:09:48Z,42.805,6.029,13.2989,4.60017,2470.334,2021-6-06T13:11:01Z
2021-06-06T11:12:51Z,42.805,6.029,13.2992,4.60025,2470.31,2021-6-06T13:14:04Z
2021-06-06T11:15:54Z,42.805,6.029,13.2991,4.60013,2470.334,2021-6-06T13:17:07Z
2021-06-06T11:18:57Z,42.805,6.029,13.2991,4.60019,2470.32,2021-6-06T13:20:10Z
2021-06-06T11:22:00Z,42.805,6.029,13.2988,4.60020,2470.31,2021-6-06T13:23:13Z
2021-06-06T11:25:03Z,42.805,6.029,13.2990,4.60026,2470.297,2021-6-06T13:26:16Z
2021-06-06T11:28:06Z,42.805,6.029,13.2992,4.60025,2470.31,2021-6-06T13:29:19Z
2021-06-06T11:31:10Z,42.805,6.029,13.2994,4.60027,2470.334,2021-6-06T13:32:22Z
2021-06-06T11:34:13Z,42.805,6.029,13.2994,4.60026,2470.297,2021-6-06T13:35:26Z
2021-06-06T11:37:16Z,42.805,6.029,13.2992,4.60029,2470.32,2021-6-06T13:38:29Z
2021-06-06T11:40:19Z,42.805,6.029,13.2991,4.60032,2470.343,2021-6-06T13:41:32Z
2021-06-06T11:43:22Z,42.805,6.029,13.2996,4.60033,2470.343,2021-6-06T13:44:35Z
2021-06-06T11:46:25Z,42.805,6.029,13.2992,4.60025,2470.334,2021-6-06T13:47:38Z
2021-06-06T11:49:28Z,42.805,6.029,13.2986,4.60029,2470.334,2021-6-06T13:50:41Z
2021-06-06T11:52:31Z,42.805,6.029,13.2990,4.60027,2470.32,2021-6-06T13:53:44Z
2021-06-06T11:55:35Z,42.805,6.029,13.2991,4.60021,2470.297,2021-6-06T13:56:47Z
2021-06-06T11:58:38Z,42.805,6.029,13.2993,4.60052,2470.32,2021-6-06T13:59:51Z
2021-06-06T12:01:41Z,42.805,6.029,13.2991,4.60027,2470.297,2021-6-06T14:02:54Z
2021-06-06T12:04:44Z,42.805,6.029,13.2996,4.60031,2470.32,2021-6-06T14:05:57Z
2021-06-06T12:07:47Z,42.805,6.029,13.2993,4.60028,2470.334,2021-6-06T14:09:00Z
2021-06-06T12:10:50Z,42.805,6.029,13.2992,4.60026,2470.357,2021-6-06T14:12:03Z
2021-06-06T12:13:53Z,42.805,6.029,13.2990,4.60023,2470.32,2021-6-06T14:15:06Z
2021-06-06T12:16:56Z,42.805,6.029,13.2992,4.60023,2470.31,2021-6-06T14:18:09Z
2021-06-06T12:20:00Z,42.805,6.029,13.2995,4.60033,2470.32,2021-6-06T14:21:12Z
2021-06-06T12:23:03Z,42.805,6.029,13.2991,4.60034,2470.32,2021-6-06T14:24:16Z
2021-06-06T12:26:06Z,42.805,6.029,13.2991,4.60038,2470.306,2021-6-06T14:27:19Z
2021-06-06T12:29:09Z,42.805,6.029,13.2992,4.60031,2470.38,2021-6-06T14:30:22Z
2021-06-06T12:32:12Z,42.805,6.029,13.2993,4.60031,2470.32,2021-6-06T14:33:25Z
2021-06-06T12:35:15Z,42.805,6.029,13.2992,4.60029,2470.334,2021-6-06T14:36:28Z
2021-06-06T12:38:18Z,42.805,6.029,13.2992,4.60029,2470.32,2021-6-06T14:39:31Z
2021-06-06T12:41:21Z,42.805,6.029,13.2990,4.60030,2470.357,2021-6-06T14:42:34Z
2021-06-06T12:44:25Z,42.805,6.029,13.2993,4.60034,2470.334,2021-6-06T14:45:37Z
2021-06-06T12:47:28Z,42.805,6.029,13.2991,4.60035,2470.334,2021-6-06T14:48:41Z
2021-06-06T12:50:31Z,42.805,6.029,13.2987,4.60039,2470.334,2021-6-06T14:51:44Z
2021-06-06T12:53:34Z,42.805,6.029,13.2996,4.60039,2470.343,2021-6-06T14:54:47Z
2021-06-06T12:56:37Z,42.805,6.029,13.2993,4.60036,2470.32,2021-6-06T14:57:50Z
2021-06-06T12:59:40Z,42.805,6.029,13.2990,4.60028,2470.334,2021-6-06T15:00:53Z
2021-06-06T13:02:43Z,42.805,6.029,13.2991,4.60029,2470.38,2021-6-06T15:03:56Z
2021-06-06T13:05:46Z,42.805,6.029,13.2991,4.60032,2470.32,2021-6-06T15:06:59Z
2021-06-06T13:08:50Z,42.805,6.029,13.2992,4.60041,2470.366,2021-6-06T15:10:02Z
2021-06-06T13:11:53Z,42.805,6.029,13.2993,4.60039,2470.297,2021-6-06T15:13:05Z
2021-06-06T13:14:56Z,42.805,6.029,13.2993,4.60039,2470.334,2021-6-06T15:16:09Z
2021-06-06T13:17:59Z,42.805,6.029,13.2991,4.60034,2470.343,2021-6-06T15:19:12Z
2021-06-06T13:21:02Z,42.805,6.029,13.2993,4.60044,2470.343,2021-6-06T15:22:15Z
2021-06-06T13:24:05Z,42.805,6.029,13.2988,4.60050,2470.334,2021-6-06T15:25:18Z
2021-06-06T13:27:08Z,42.805,6.029,13.2998,4.60045,2470.357,2021-6-06T15:28:21Z
2021-06-06T13:30:11Z,42.805,6.029,13.2989,4.60052,2470.334,2021-6-06T15:31:24Z
2021-06-06T13:33:15Z,42.805,6.029,13.2994,4.60079,2470.334,2021-6-06T15:34:27Z
2021-06-06T13:36:18Z,42.805,6.029,13.2991,4.60091,2470.343,2021-6-06T15:37:30Z
2021-06-06T13:39:21Z,42.805,6.029,13.2996,4.60096,2470.357,2021-6-06T15:40:34Z
2021-06-06T13:42:24Z,42.805,6.029,13.2990,4.60140,2470.297,2021-6-06T15:43:37Z
2021-06-06T13:45:27Z,42.805,6.029,13.2994,4.60152,2470.297,2021-6-06T15:46:40Z
2021-06-06T13:48:30Z,42.805,6.029,13.2993,4.60105,2470.32,2021-6-06T15:49:43Z
2021-06-06T13:51:33Z,42.805,6.029,13.2997,4.60130,2470.297,2021-6-06T15:52:46Z
2021-06-06T13:54:36Z,42.805,6.029,13.2998,4.60064,2470.32,2021-6-06T15:55:49Z
2021-06-06T13:57:40Z,42.805,6.029,13.3011,4.60079,2470.32,2021-6-06T15:58:52Z
2021-06-06T14:00:43Z,42.805,6.029,13.3025,4.60084,2470.297,2021-6-06T16:01:55Z
2021-06-06T14:03:46Z,42.805,6.029,13.3049,4.60083,2470.297,2021-6-06T16:04:59Z
2021-06-06T14:06:49Z,42.805,6.029,13.3023,4.60081,2470.334,2021-6-06T16:08:02Z
2021-06-06T14:09:52Z,42.805,6.029,13.3040,4.60070,2470.334,2021-6-06T16:11:05Z
2021-06-06T14:12:55Z,42.805,6.029,13.3054,4.60077,2470.31,2021-6-06T16:14:08Z
2021-06-06T14:15:58Z,42.805,6.029,13.3044,4.60085,2470.334,2021-6-06T16:17:11Z
2021-06-06T14:19:01Z,42.805,6.029,13.3002,4.60137,2470.297,2021-6-06T16:20:14Z
2021-06-06T14:22:04Z,42.805,6.029,13.2997,4.60150,2470.32,2021-6-06T16:23:17Z
2021-06-06T14:25:08Z,42.805,6.029,13.2999,4.60075,2470.32,2021-6-06T16:26:20Z
2021-06-06T14:28:11Z,42.805,6.029,13.3000,4.60125,2470.31,2021-6-06T16:29:24Z
2021-06-06T14:31:14Z,42.805,6.029,13.2994,4.60067,2470.357,2021-6-06T16:32:27Z
2021-06-06T14:34:17Z,42.805,6.029,13.2992,4.60053,2470.334,2021-6-06T16:35:30Z
2021-06-06T14:37:20Z,42.805,6.029,13.2991,4.60057,2470.32,2021-6-06T16:38:33Z
2021-06-06T14:40:23Z,42.805,6.029,13.2994,4.60062,2470.297,2021-6-06T16:41:36Z
2021-06-06T14:43:26Z,42.805,6.029,13.3007,4.60080,2470.32,2021-6-06T16:44:39Z
2021-06-06T14:46:29Z,42.805,6.029,13.2998,4.60085,2470.334,2021-6-06T16:47:42Z
2021-06-06T14:49:33Z,42.805,6.029,13.2994,4.60155,2470.32,2021-6-06T16:50:45Z
2021-06-06T14:52:36Z,42.805,6.029,13.2990,4.60065,2470.297,2021-6-06T16:53:49Z
2021-06-06T14:55:39Z,42.805,6.029,13.2996,4.60049,2470.357,2021-6-06T16:56:52Z
2021-06-06T14:58:42Z,42.805,6.029,13.2991,4.60049,2470.297,2021-6-06T16:59:55Z
2021-06-06T15:01:45Z,42.805,6.029,13.2995,4.60059,2470.343,2021-6-06T17:02:58Z
2021-06-06T15:04:48Z,42.805,6.029,13.3018,4.60102,2470.32,2021-6-06T17:06:01Z
2021-06-06T15:07:51Z,42.805,6.029,13.3027,4.60107,2470.32,2021-6-06T17:09:04Z
2021-06-06T15:10:54Z,42.805,6.029,13.3034,4.60099,2470.306,2021-6-06T17:12:07Z
2021-06-06T15:13:58Z,42.805,6.029,13.3034,4.60087,2470.334,2021-6-06T17:15:10Z